Weather History for KAAF - February, 2012

Change the Weather History Date:

Monday, February 6, 2012

  Actual Average Record
Temperature  
Mean Temperature 68 °F 54 °F  
Max Temperature 76 °F 65 °F 77 °F (1948)
Min Temperature 59 °F 43 °F 26 °F (2009)
Degree Days  
Heating Degree Days 0    
Month to date heating degree days 7  
Since 1 July heating degree days 642  
Cooling Degree Days 3    
Month to date cooling degree days 8  
Year to date cooling degree days 23  
Growing Degree Days 17 (Base 50)    
Moisture  
Dew Point 57 °F    
Average Humidity 73    
Maximum Humidity 93    
Minimum Humidity 53    
Precipitation  
Precipitation T in 0.14 in 1.95 in (1955)
Month to date precipitation 0.25 0.86  
Year to date precipitation 2.97 5.26  
Sea Level Pressure  
Sea Level Pressure 30.08 in    
Wind  
Wind Speed 5 mph (NNE)    
Max Wind Speed 13 mph    
Max Gust Speed 16 mph    
Visibility 8 miles    
Events Fog , Rain    
T = Trace of Precipitation, MM = Missing Value Source: NWS Daily Summary

Daily Weather History Graph

Daily Weather History Graph

Search for Another Location

Airport or City:

Trip Planner

Search our weather history database for the weather conditions in past years. The results will help you decide how hot, cold, wet, or windy it might be!

Date:

Astronomy

Feb. 06, 2012 Rise Set
Actual Time 7:27 AM EST 6:21 PM EST
Civil Twilight 7:02 AM EST 6:46 PM EST
Nautical Twilight 6:33 AM EST 7:14 PM EST
Astronomical Twilight 6:05 AM EST 7:42 PM EST
Moon 5:25 PM EST (2/6) 6:15 AM EST (2/6)
Length of Visible Light 11h 44m
Length of Day
10h 54m
Waxing Gibbous, 98% of the Moon is Illuminated
Feb 6
Waxing Gibbous
Feb 7
Full
Feb 14
Last Quarter
Feb 21
New
Feb 29
First Quarter

Hourly Weather History & Observations

Time (EST) Temp. Dew Point Humidity Pressure Visibility Wind Dir Wind Speed Gust Speed Precip Events Conditions
12:22 AM 62.6 °F 60.8 °F 94% 30.07 in 0.2 mi North 3.5 mph - N/A Fog Fog
12:38 AM 62.6 °F 60.8 °F 94% 30.07 in 0.8 mi NNE 4.6 mph - N/A   Mist
12:44 AM 62.6 °F 60.8 °F 94% 30.07 in 2.0 mi NNE 5.8 mph - N/A   Scattered Clouds
12:53 AM 63.0 °F 61.0 °F 93% 30.07 in 6.0 mi North 4.6 mph - N/A   Partly Cloudy
1:14 AM 62.6 °F 60.8 °F 94% 30.07 in 2.5 mi North 3.5 mph - N/A   Partly Cloudy
1:29 AM 62.6 °F 60.8 °F 94% 30.07 in 5.0 mi NNE 4.6 mph - N/A   Scattered Clouds
1:53 AM 62.1 °F 60.1 °F 93% 30.06 in 8.0 mi NE 3.5 mph - N/A   Overcast
2:53 AM 62.1 °F 59.0 °F 90% 30.06 in 10.0 mi North 6.9 mph - N/A   Clear
3:53 AM 61.0 °F 57.0 °F 87% 30.07 in 10.0 mi NNE 9.2 mph - N/A   Clear
4:53 AM 59.0 °F 55.0 °F 87% 30.07 in 10.0 mi NNE 11.5 mph - N/A   Mostly Cloudy
5:53 AM 59.0 °F 54.0 °F 83% 30.07 in 10.0 mi NNE 8.1 mph - N/A   Overcast
6:53 AM 59.0 °F 53.1 °F 81% 30.09 in 10.0 mi NNE 8.1 mph - N/A   Overcast
7:53 AM 59.0 °F 52.0 °F 78% 30.11 in 10.0 mi NNE 9.2 mph - N/A   Overcast
8:53 AM 59.0 °F 52.0 °F 78% 30.12 in 10.0 mi NNE 8.1 mph - N/A   Overcast
9:53 AM 60.1 °F 52.0 °F 75% 30.14 in 10.0 mi NNE 9.2 mph - N/A   Overcast
10:53 AM 64.9 °F 54.0 °F 68% 30.14 in 10.0 mi NNE 8.1 mph - N/A   Overcast
11:53 AM 70.0 °F 55.0 °F 59% 30.12 in 10.0 mi NNE 9.2 mph - N/A   Scattered Clouds
12:53 PM 73.9 °F 55.9 °F 53% 30.11 in 10.0 mi Calm Calm - N/A   Clear
1:53 PM 71.1 °F 57.0 °F 61% 30.08 in 10.0 mi ESE 4.6 mph - N/A   Mostly Cloudy
2:53 PM 75.0 °F 57.0 °F 53% 30.06 in 10.0 mi Calm Calm - 0.00 in   Clear
3:53 PM 72.0 °F 57.0 °F 59% 30.05 in 10.0 mi South 6.9 mph - N/A   Clear
4:53 PM 70.0 °F 59.0 °F 68% 30.06 in 10.0 mi SW 4.6 mph - N/A   Scattered Clouds
5:53 PM 68.0 °F 60.1 °F 76% 30.06 in 10.0 mi South 4.6 mph - N/A   Clear
6:53 PM 64.9 °F 60.1 °F 84% 30.07 in 10.0 mi Calm Calm - 0.00 in Rain Light Rain
7:53 PM 63.0 °F 59.0 °F 87% 30.08 in 10.0 mi NW 4.6 mph - 0.00 in   Overcast
8:53 PM 63.0 °F 57.9 °F 84% 30.08 in 10.0 mi Calm Calm - N/A   Clear
9:53 PM 66.0 °F 57.9 °F 75% 30.09 in 10.0 mi Calm Calm - N/A   Clear
10:53 PM 62.1 °F 57.0 °F 84% 30.08 in 10.0 mi North 5.8 mph - N/A   Clear
11:53 PM 62.1 °F 55.9 °F 80% 30.10 in 10.0 mi NNE 3.5 mph - N/A   Mostly Cloudy